Location: Usti nad Labem
(50.6670°N, 14.0330°E)
Time: 23:30:40
(UTC+01:00)

ISS - Pass Details

Date: 05 October 2020
Orbit: 417 x 420 km, 51.6° (Epoch: 30 October)

Event Time Altitude Azimuth Distance (km) Brightness Sun altitude
Rises 19:32:16 0° 285° (WNW) 2,370 2.0 -10.3°
Reaches altitude 10° 19:34:32 10° 274° (W) 1,503 0.7 -10.7°
Maximum altitude 19:37:28 28° 213° (SSW) 821 -2.0 -11.1°
Drops below altitude 10° 19:40:24 10° 152° (SSE) 1,497 -1.3 -11.6°
Enters shadow 19:40:56 - 149° (SSE) 1,689 -1.0 -11.7°
